Theta_e
286 280 281 278 277 279 282 281 283 282 281 282 280 280 280 278 280 280 282 285 283 282 277 278 279 281 285 287 289 289 288 286 285 285 285 285 286 286 286 286 287 286 289 290 290 291 291 291 291 291 290 290 290 290 292 293 293 294 295 294 294 295 294 295 294 293 294 294 292 292 293 295 296 296 296 297 297 297 298 297 297 297 297 296 296 296
283 282 282 277 280 279 283 281 281 283 281 282 281 281 280 280 279 281 284 283 281 285 279 277 281 286 286 288 288 288 285 286 288 287 285 287 286 285 285 286 287 288 287 289 290 290 289 290 290 290 290 291 290 291 290 293 294 294 294 295 295 294 294 295 295 296 295 295 295 296 296 296 296 295 295 297 297 297 298 297 296 296 296 295 295 296
279 279 282 281 281 282 282 282 281 282 282 281 283 280 281 277 279 280 281 281 283 284 281 278 282 285 287 287 288 286 286 285 285 286 287 287 288 289 287 286 287 287 288 288 289 291 290 290 290 289 290 290 292 292 292 293 293 293 294 295 295 295 295 295 295 295 296 295 296 296 294 295 294 293 296 296 297 296 297 297 296 296 295 295 295 295
281 282 280 283 283 283 283 281 282 281 282 282 281 280 280 279 279 277 276 280 286 283 281 281 282 284 283 285 283 283 286 286 286 288 287 287 288 290 291 289 290 289 289 289 289 290 289 290 289 289 289 290 290 290 290 291 292 294 295 294 294 295 295 295 295 297 296 296 295 295 294 292 294 295 292 294 294 294 294 295 296 295 296 295 295 295
282 283 282 283 282 283 284 282 280 281 282 281 282 280 279 280 281 278 278 281 281 281 282 282 279 279 280 281 285 286 284 285 288 288 290 290 289 288 289 289 289 290 290 291 291 290 290 291 290 290 290 289 290 291 292 292 292 294 294 295 295 295 295 295 296 296 295 294 294 293 294 292 292 292 291 291 293 294 295 295 294 296 295 295 295 294
281 283 284 283 283 283 284 284 280 277 278 275 278 281 281 279 281 278 279 281 275 278 277 282 273 276 278 279 280 282 284 286 285 289 289 290 290 289 290 289 291 290 289 290 292 292 291 290 290 290 290 290 290 291 292 293 293 293 294 293 293 293 294 295 295 295 295 295 295 293 293 292 292 293 291 294 295 295 294 295 296 293 295 295 295 294
281 282 283 283 282 281 281 281 281 280 278 280 281 281 280 279 280 279 279 277 275 278 282 281 277 274 276 278 281 281 280 282 284 285 287 288 290 289 289 289 289 290 292 291 289 289 290 291 290 290 290 291 290 292 291 290 291 291 292 292 293 293 294 295 294 294 296 294 294 294 295 295 295 294 295 295 295 295 294 294 294 295 293 294 295 294
282 282 282 282 282 282 282 284 283 279 277 279 281 280 280 281 280 279 278 279 277 277 280 279 276 274 273 280 279 279 281 281 281 286 287 288 288 289 289 290 289 290 289 291 292 292 290 290 290 292 293 291 292 292 291 290 290 291 291 291 292 293 294 294 293 293 295 295 294 294 294 295 294 294 295 294 294 292 292 293 294 293 293 293 294 294
282 283 282 282 280 281 281 281 283 281 280 280 280 280 281 281 280 279 280 279 279 280 276 274 279 277 273 278 280 281 287 282 283 284 285 287 288 288 289 290 290 290 289 290 291 292 293 292 292 291 292 293 292 292 292 292 291 291 290 290 290 291 292 292 292 294 293 295 295 294 294 294 295 295 295 293 291 291 290 292 292 292 293 292 293 293
283 284 283 283 281 280 281 281 280 282 280 283 281 282 280 280 280 279 277 279 277 276 274 278 278 275 273 274 277 277 282 282 284 285 285 287 288 288 290 290 290 289 290 290 290 290 291 291 292 291 291 291 293 292 293 292 292 291 291 291 291 291 291 291 290 293 293 293 294 293 293 293 294 294 294 291 292 290 289 290 291 291 291 292 292 292
283 288 288 285 283 283 282 282 281 283 283 282 281 282 278 278 279 277 276 276 273 270 273 277 277 276 273 276 280 285 286 283 283 286 285 286 289 289 289 288 290 290 290 291 291 291 292 292 291 289 291 291 290 290 292 293 293 292 292 292 292 293 291 291 291 291 292 292 293 294 294 293 294 293 292 291 292 291 290 291 291 290 291 291 292 291
283 284 283 281 286 284 284 284 283 282 282 282 282 281 276 280 274 279 270 270 271 265 271 275 278 276 272 272 278 280 281 281 285 285 287 287 288 289 289 289 289 289 289 290 291 293 292 293 294 293 294 293 293 290 291 291 292 292 293 292 293 294 293 292 292 291 292 292 292 292 292 293 293 292 292 291 292 292 291 292 292 290 289 290 290 290
282 282 282 282 284 285 283 281 281 283 280 280 277 275 273 268 268 271 262 273 268 270 281 277 277 274 275 276 280 280 282 281 282 288 288 287 288 289 290 290 289 288 288 290 290 291 292 291 292 293 293 293 294 294 292 292 291 291 291 292 293 295 293 294 293 293 293 292 292 292 292 292 293 292 291 292 292 292 291 292 292 290 291 289 289 290
277 279 280 283 283 284 283 279 280 280 279 278 280 276 271 266 259 263 255 261 266 273 276 277 275 276 276 280 282 284 284 283 285 286 286 287 287 289 289 290 289 288 288 289 289 289 289 291 291 292 292 292 292 293 294 292 291 291 292 292 292 295 293 292 292 294 294 294 293 293 293 293 293 293 292 292 292 293 292 292 292 292 292 291 291 291
273 276 280 282 282 283 281 281 280 282 279 281 276 279 275 263 268 267 263 271 271 273 275 275 273 271 274 284 284 282 282 280 283 286 286 285 284 285 287 287 286 287 289 288 289 290 290 291 290 291 291 291 291 292 293 292 292 290 291 292 292 294 294 293 293 292 293 295 294 294 294 293 293 293 293 293 293 293 292 292 292 292 291 291 292 291
279 276 280 281 282 280 282 283 281 279 277 277 279 279 275 276 273 274 263 266 264 267 270 271 274 274 281 283 284 283 284 287 287 287 288 288 287 287 289 289 288 289 290 289 289 290 290 289 289 289 290 290 290 290 290 291 291 290 291 290 292 293 294 293 292 293 293 294 294 294 293 294 294 293 293 293 293 293 293 293 292 292 292 292 291 291
275 277 281 279 280 280 281 281 282 281 275 279 280 277 281 278 274 268 269 270 270 266 270 268 277 277 279 282 283 283 286 288 288 288 287 287 286 286 287 287 287 288 288 289 289 289 290 289 290 289 288 289 289 290 290 291 290 291 291 290 291 292 291 292 292 293 293 293 292 293 293 293 293 293 293 294 293 293 293 293 293 292 292 291 291 292
277 276 280 279 280 282 280 280 282 280 281 279 276 275 280 278 273 274 272 264 261 265 268 272 272 276 276 275 280 285 285 286 286 286 287 285 284 286 287 287 288 290 289 288 288 288 288 288 289 289 289 289 289 289 290 291 290 289 290 290 291 291 292 293 291 292 292 292 292 292 293 293 293 294 294 293 293 293 292 292 292 291 291 291 292 291
282 277 277 279 280 280 279 281 279 283 281 281 278 282 280 272 274 272 267 266 266 264 262 270 270 272 276 279 279 282 282 285 285 286 285 287 287 287 286 287 287 286 287 289 289 289 290 289 290 289 289 290 289 289 289 290 290 290 289 289 290 292 292 292 292 291 291 291 292 293 293 292 293 292 293 293 293 292 292 292 292 291 292 291 289 290
279 275 274 277 279 280 279 278 274 277 281 277 280 281 280 276 270 270 271 267 268 265 263 267 266 277 277 275 278 284 284 285 285 284 286 286 286 286 287 287 288 288 288 289 289 289 290 290 289 289 289 290 290 290 290 289 289 290 290 289 290 289 289 290 290 290 290 291 290 292 291 290 291 291 292 292 292 292 291 292 291 291 289 291 290 289
277 278 270 275 276 278 276 277 276 278 277 277 277 274 274 277 277 278 274 272 271 260 261 261 265 273 276 278 280 283 285 285 286 286 285 285 286 288 287 287 287 287 288 288 289 289 290 290 290 290 289 289 289 288 288 289 289 289 289 289 289 289 290 290 291 290 291 290 290 289 289 290 290 290 290 289 289 290 290 290 290 290 290 287 287 287
276 276 272 270 274 275 275 277 278 277 277 276 278 276 278 275 274 271 271 273 267 271 268 262 270 275 280 281 283 281 284 286 284 284 285 285 287 286 286 286 286 287 287 287 288 288 289 289 289 289 289 288 288 290 290 290 289 289 290 289 289 289 289 290 291 290 291 289 289 288 289 289 288 288 288 287 288 288 289 288 288 288 285 286 288 284
280 273 271 272 274 276 278 279 279 278 276 276 277 277 277 275 273 267 267 269 270 270 269 265 267 275 283 280 282 282 283 283 283 283 286 287 287 286 286 286 286 286 288 289 288 289 288 288 288 288 288 287 288 288 288 288 288 288 288 289 289 289 290 289 289 289 289 288 288 288 288 287 287 286 285 285 287 286 287 287 287 285 286 286 286 283
287 275 275 274 271 274 277 275 272 277 278 274 274 271 275 277 275 276 270 271 270 268 271 269 268 276 280 280 280 280 279 280 282 283 286 287 285 286 286 286 285 286 287 287 287 288 288 287 286 287 288 289 288 287 288 288 287 287 287 287 287 288 288 288 289 288 288 288 287 286 285 286 285 284 285 285 286 285 286 285 285 284 283 284 283 283
279 276 275 269 268 267 270 273 276 275 274 274 274 275 276 276 274 269 269 269 274 271 274 272 269 274 278 278 279 281 281 284 284 285 285 287 287 286 286 286 286 287 287 287 287 287 287 287 288 288 287 287 287 286 286 287 287 286 287 286 286 287 287 287 287 287 287 285 285 286 285 285 284 284 284 284 285 284 284 284 284 283 283 282 283 282
279 278 275 270 269 269 267 266 268 271 277 276 275 277 277 280 273 276 274 270 271 268 273 268 269 281 280 281 283 282 281 283 284 282 283 284 285 286 287 287 287 286 287 287 286 287 288 287 286 285 286 286 286 285 286 286 286 286 286 286 284 285 286 286 286 285 285 285 284 285 285 285 284 284 284 284 283 284 284 284 282 282 282 281 283 281
276 275 275 275 277 277 279 272 275 277 275 275 276 276 278 278 278 276 272 269 275 267 271 276 278 281 283 284 283 286 286 285 286 286 287 287 286 286 285 286 286 287 287 287 287 287 285 285 286 286 285 285 285 284 284 284 286 285 285 285 285 284 284 285 285 285 285 284 283 284 284 284 284 284 283 283 283 283 283 282 282 281 282 281 281 281
273 276 278 275 276 279 277 274 277 279 276 275 277 278 277 278 278 278 275 276 275 272 275 279 279 278 283 286 286 285 286 284 284 285 286 285 286 287 288 286 287 286 286 285 285 286 287 286 285 285 285 284 285 284 284 283 284 283 284 284 284 284 284 285 284 284 284 284 284 284 284 284 283 283 283 283 282 282 282 282 281 281 281 281 281 281
274 275 275 277 278 277 276 276 277 280 279 276 277 277 277 278 277 278 279 279 277 277 278 280 278 280 283 285 287 287 287 285 285 287 287 287 286 286 284 286 287 287 285 285 286 285 285 286 285 285 285 285 284 285 284 284 285 284 284 283 283 283 284 283 283 283 283 283 283 284 283 283 283 283 282 282 282 282 282 281 280 281 280 280 280 281
279 273 275 277 275 276 277 277 276 279 278 279 277 277 279 278 278 280 281 280 279 281 282 282 280 280 284 286 288 289 287 286 287 285 284 285 288 287 284 285 286 286 285 286 286 286 285 285 284 284 284 284 284 284 284 284 284 284 283 284 284 284 284 283 283 283 283 283 283 283 283 283 282 282 282 282 282 282 281 281 280 280 280 279 279 279
279 274 281 273 275 273 272 275 275 277 276 276 279 277 277 278 279 279 278 278 278 279 281 281 280 281 286 288 288 289 288 287 287 286 287 288 286 285 285 286 286 286 284 284 284 285 284 284 283 283 284 284 284 284 284 283 283 282 282 283 283 283 283 282 282 283 282 283 283 283 282 283 283 282 283 281 281 281 281 281 280 279 279 279 279 279
278 273 274 272 276 273 272 272 273 271 274 272 276 278 277 276 272 276 277 279 279 280 281 278 277 280 286 288 285 286 286 284 285 286 285 286 285 284 285 286 286 285 285 284 284 283 283 283 283 284 284 284 284 283 282 282 281 281 282 282 282 282 282 282 282 282 282 282 282 283 282 282 282 282 282 281 281 280 279 279 279 279 278 278 278 277
277 275 276 273 275 268 271 270 271 271 272 278 280 282 281 280 281 279 280 279 282 284 280 276 280 286 288 287 284 284 283 284 283 284 285 285 285 285 286 287 286 285 284 284 284 284 283 283 284 284 284 282 283 283 282 281 280 281 281 281 282 281 281 282 281 281 282 282 282 282 282 281 281 281 281 281 280 279 279 278 279 278 278 278 277 277
274 277 273 273 274 269 271 268 269 273 271 277 282 280 283 280 280 280 281 282 283 283 283 285 286 287 284 284 285 286 284 285 288 288 287 288 287 285 286 285 285 284 284 284 284 284 283 283 283 284 283 283 282 281 281 281 281 280 280 280 280 280 281 281 281 281 281 281 282 281 281 281 281 281 281 280 279 278 278 278 278 277 277 277 276 276
277 274 273 270 274 273 272 272 274 269 276 284 281 280 281 283 282 282 283 284 284 284 285 284 285 286 288 288 287 286 285 286 284 285 287 286 287 288 287 286 286 285 285 285 284 283 283 284 283 282 281 282 282 281 280 281 279 280 280 280 281 280 280 280 280 281 281 281 281 281 281 281 281 281 280 279 278 278 278 278 277 276 275 276 276 275
276 278 272 275 269 270 272 271 267 271 277 280 282 282 281 280 279 281 282 284 284 284 284 284 286 288 289 289 288 285 285 285 284 285 286 288 287 288 286 286 286 285 285 284 284 285 285 284 284 284 283 282 280 280 280 280 279 279 280 280 280 279 279 280 280 280 280 280 280 280 280 280 280 280 279 279 279 278 278 277 276 276 275 275 274 274
281 277 275 275 271 274 270 272 277 277 282 285 285 281 282 283 281 282 280 286 285 285 285 285 286 287 288 288 286 284 282 283 286 290 286 286 285 286 287 286 286 285 284 286 284 287 286 284 283 282 281 280 280 280 280 279 279 279 279 280 280 279 279 279 279 279 279 279 279 279 279 279 279 279 279 278 279 278 278 277 277 276 274 275 273 274
280 282 276 277 275 271 269 269 269 272 272 280 284 283 282 283 283 282 283 283 286 284 287 287 286 287 287 286 284 282 285 286 283 287 285 285 285 286 284 286 285 285 284 286 284 283 282 281 280 279 279 280 279 279 279 278 279 278 279 279 278 278 279 278 278 278 278 278 278 278 278 278 278 278 278 277 278 277 277 275 274 274 274 275 273 273
278 276 275 280 273 272 272 272 268 269 275 282 282 285 284 281 283 282 281 279 286 284 286 286 287 287 286 284 282 283 284 281 282 284 286 286 286 284 287 285 285 284 283 282 283 284 283 281 281 279 279 279 279 279 278 278 279 279 279 278 277 278 277 277 277 278 277 277 277 276 277 277 277 277 276 276 277 276 276 275 274 272 272 271 271 271
276 274 274 274 271 271 272 270 273 270 275 281 282 280 283 281 283 283 275 275 282 279 281 285 286 287 285 283 284 285 285 281 282 283 284 287 287 285 285 285 283 283 282 281 281 282 281 279 279 279 279 279 278 278 278 278 278 278 277 277 277 277 277 277 277 277 276 276 276 276 276 276 276 276 275 274 274 274 273 273 271 272 272 272 272 271
274 274 273 277 275 275 278 272 267 274 280 282 283 282 281 282 283 274 275 284 281 280 280 284 286 286 284 283 285 286 287 288 286 286 283 284 285 285 283 283 283 283 284 281 281 280 279 279 280 279 278 278 278 278 278 278 278 277 277 277 277 277 277 277 277 276 276 276 276 276 276 276 275 275 274 273 272 272 272 272 271 271 272 271 271 271
270 270 270 270 271 277 275 275 276 275 279 284 282 286 283 284 276 279 286 283 282 282 280 284 286 284 285 286 287 289 289 286 284 283 284 284 285 285 284 282 281 280 280 280 280 279 279 279 278 278 279 278 277 278 278 278 277 277 276 276 276 276 277 277 276 276 276 276 275 275 275 274 274 274 274 272 273 273 272 272 272 272 271 270 270 271
279 277 274 275 273 270 270 273 271 273 282 287 286 284 285 282 284 287 282 283 282 284 284 283 285 285 286 286 287 289 286 283 283 283 284 283 282 284 283 282 283 283 282 280 279 278 279 279 279 278 278 278 278 278 277 276 276 276 276 276 276 277 276 276 276 276 275 275 274 273 273 273 272 272 272 272 271 272 271 271 271 270 270 270 270 270
281 276 270 274 280 277 276 274 276 283 283 288 290 286 285 290 287 283 285 290 285 283 283 284 284 285 287 289 288 286 285 283 284 282 282 282 281 282 281 281 281 281 279 279 279 278 278 279 278 278 278 277 277 277 277 276 276 275 276 276 276 276 276 275 275 274 273 272 272 272 272 271 271 271 271 271 271 271 270 270 270 270 269 269 270 269
282 281 280 279 281 280 277 281 284 280 285 289 292 289 289 293 285 282 285 288 288 286 282 285 288 285 286 287 287 287 286 284 285 282 284 284 284 283 283 282 281 281 280 279 279 278 278 279 278 278 277 276 276 276 276 275 274 273 274 275 276 275 275 274 272 272 271 271 270 270 269 270 271 271 271 270 270 270 269 269 270 270 268 269 269 269
280 283 278 282 280 282 283 283 284 283 281 284 289 289 286 285 286 284 286 287 285 285 285 287 284 285 285 283 285 284 285 284 283 283 282 283 283 282 281 280 279 278 278 278 278 277 278 278 278 277 276 276 276 275 275 274 274 272 273 275 275 274 272 270 270 270 270 269 269 269 269 270 270 270 269 270 270 269 268 269 268 268 267 268 267 267
280 279 282 280 280 282 280 282 285 286 286 286 288 290 288 287 288 286 284 287 290 286 284 285 285 284 286 284 286 287 285 284 284 283 283 283 282 282 281 281 279 278 278 279 279 278 278 278 277 276 276 275 275 274 273 271 272 272 272 272 272 271 270 269 269 269 269 269 269 269 269 269 269 269 269 268 269 269 269 268 268 268 268 266 265 266
281 280 282 282 280 280 280 281 285 287 285 284 288 289 290 292 292 289 289 289 287 285 285 287 284 284 283 285 286 285 286 284 284 284 283 283 284 282 281 280 279 278 278 278 278 278 277 277 276 276 275 274 274 273 271 270 270 270 270 270 270 268 269 270 269 269 268 268 269 269 268 268 270 269 268 269 268 268 268 268 268 268 267 266 265 265
281 284 278 279 283 283 282 284 285 286 286 285 286 288 292 293 293 291 289 288 287 287 287 285 284 287 285 288 285 285 285 285 284 284 283 283 282 281 281 279 279 279 278 278 277 277 278 276 275 274 274 273 273 271 268 268 268 269 269 270 269 268 269 270 269 269 267 268 268 269 268 268 267 267 266 266 268 268 267 266 266 267 265 267 266 264
282 280 279 279 277 278 282 285 286 284 286 287 287 290 290 291 290 290 288 286 286 287 287 287 287 285 284 284 285 285 286 286 282 282 283 283 282 281 279 278 278 278 277 277 277 276 275 273 273 273 272 272 271 269 267 267 268 268 269 268 267 268 270 269 269 268 268 268 267 267 268 267 267 266 266 266 265 266 267 271 273 273 269 267 272 274
285 283 282 282 281 282 285 287 289 290 290 290 289 288 288 287 287 288 288 289 289 288 288 287 286 285 285 284 282 284 285 286 283 281 281 281 280 280 279 279 278 277 277 276 274 273 273 272 271 270 269 270 269 268 267 267 267 268 268 268 268 268 268 268 268 267 267 268 267 268 267 266 266 266 266 266 265 266 266 266 268 272 273 273 272 273
Wind_Speed
0 4 3 4 4 3 1 2 1 0 2 3 1 1 5 3 6 3 2 1 0 3 5 4 5 7 14 14 13 9 10 5 5 6 6 6 7 6 6 7 7 7 12 5 5 7 7 7 6 6 5 5 5 5 6 7 8 9 10 9 10 9 7 7 7 7 7 7 5 4 7 9 8 8 7 7 8 8 9 9 8 8 8 7 6 6
4 8 0 3 3 2 1 0 1 1 1 1 1 2 6 2 4 2 0 3 3 5 6 1 7 13 11 10 9 8 5 5 6 7 5 7 6 5 6 8 8 8 5 6 7 6 5 5 5 4 4 5 5 6 6 9 11 9 8 10 11 7 7 8 9 9 7 7 7 8 9 9 8 7 7 9 8 10 8 8 7 7 6 7 7 7
5 3 1 2 1 0 0 1 1 1 0 0 3 2 1 2 6 6 1 3 1 2 7 4 6 12 12 10 11 5 4 5 4 2 5 4 7 8 6 5 8 6 8 6 6 4 4 4 4 4 5 6 9 7 9 9 6 7 8 9 8 8 9 9 8 8 8 7 7 7 6 7 6 4 6 6 7 5 7 7 7 7 7 7 7 7
4 2 2 0 1 1 2 2 1 1 1 1 0 0 3 2 3 4 2 5 7 1 3 5 7 10 9 6 3 2 1 4 4 4 4 2 5 7 7 6 6 6 7 6 5 5 4 2 3 3 4 7 5 5 5 5 8 7 8 7 7 8 7 8 8 9 9 6 4 3 1 1 4 5 3 4 5 6 5 9 7 7 8 8 8 7
2 0 1 2 2 1 1 1 4 3 2 0 0 1 1 1 1 3 5 7 6 2 1 7 1 4 4 6 7 6 5 4 9 8 8 7 3 4 4 5 2 6 6 7 7 5 3 3 3 5 5 2 6 7 8 8 8 8 10 10 9 8 8 8 8 9 5 3 2 2 0 1 3 4 4 4 7 7 7 6 7 12 7 7 8 7
2 0 1 1 2 2 1 1 0 2 2 1 2 2 1 2 1 3 6 7 7 3 2 5 4 1 5 5 4 6 8 7 5 8 7 7 7 8 7 7 7 5 2 5 6 5 4 4 4 3 4 5 6 7 9 8 9 7 8 7 6 6 6 8 8 7 6 7 8 6 6 7 7 9 7 10 13 9 9 11 6 4 7 8 8 7
1 1 1 1 2 3 2 1 0 1 1 0 1 3 2 2 1 1 5 3 4 2 5 4 3 2 6 3 2 4 5 4 6 5 6 6 7 6 6 5 5 6 8 5 4 4 5 5 4 5 5 6 6 10 5 5 6 6 7 6 7 8 7 7 6 6 6 6 7 10 11 10 10 11 10 9 8 7 6 5 6 7 5 7 9 8
1 2 3 3 2 1 1 0 0 2 1 3 0 3 2 1 1 1 2 1 1 2 5 5 3 1 3 7 2 3 1 4 5 7 6 6 5 6 5 5 5 6 5 4 5 5 3 5 5 7 7 5 9 4 2 5 5 6 8 6 7 7 7 7 5 6 7 9 8 8 9 10 10 11 14 9 7 4 4 5 7 5 6 6 7 8
1 0 1 1 2 1 2 1 0 1 1 1 1 2 0 0 1 2 1 0 1 1 3 3 3 1 3 9 5 1 1 4 4 4 4 5 5 5 5 5 5 5 4 3 4 5 6 5 5 5 7 6 5 5 5 5 5 5 5 5 5 6 6 6 5 7 8 9 9 10 9 10 11 11 12 6 2 4 4 6 5 5 6 6 7 8
1 0 1 2 2 2 2 1 1 1 0 1 1 2 2 2 2 1 1 1 1 1 2 1 2 1 7 6 6 2 1 1 1 1 3 3 3 4 5 5 5 5 5 4 4 4 6 6 5 4 4 6 7 5 4 5 4 5 4 5 5 8 5 4 5 5 6 8 7 8 9 12 12 8 9 5 7 6 4 7 7 6 7 7 7 7
1 2 4 3 0 0 1 0 1 1 1 2 3 2 3 3 2 2 4 1 2 1 3 2 1 1 4 5 3 1 0 3 3 1 4 4 3 3 3 4 5 5 5 5 6 6 6 6 5 5 5 5 4 3 3 5 5 4 4 5 6 7 4 3 4 5 7 6 6 9 9 10 12 10 6 7 9 7 5 8 9 7 7 6 8 6
1 1 0 1 1 1 1 0 0 1 1 1 0 1 3 1 6 1 4 3 1 3 3 2 0 1 1 5 6 9 3 4 9 6 6 4 3 2 3 4 4 4 5 5 5 7 7 9 9 8 8 8 7 5 4 3 3 4 4 4 6 6 5 4 4 4 6 6 7 7 7 9 9 6 6 8 10 8 8 8 9 6 5 7 6 5
1 1 1 5 1 2 1 1 0 0 1 2 1 3 3 5 6 3 4 2 1 2 0 2 1 2 7 10 5 5 7 6 7 8 9 6 3 3 3 3 4 4 4 4 5 5 6 5 6 7 7 7 7 7 7 6 4 3 3 4 5 7 5 6 5 6 6 6 8 8 9 9 8 7 8 9 10 8 8 8 8 7 8 6 6 8
3 1 3 2 2 1 1 2 1 0 1 1 1 2 2 1 3 1 4 1 5 5 3 0 1 3 6 9 10 11 9 8 8 8 6 6 5 3 3 3 5 5 3 3 4 4 5 5 5 6 5 5 6 6 7 6 4 4 3 4 4 8 5 4 4 5 6 7 8 7 9 9 8 9 9 9 10 9 8 7 8 8 8 8 9 7
2 4 2 1 1 1 1 0 1 0 1 1 1 1 3 4 1 2 2 3 4 4 4 4 1 6 1 2 1 7 5 4 4 5 5 4 4 4 5 5 4 4 4 3 4 4 4 5 5 5 5 5 5 6 6 5 5 4 4 4 5 6 7 5 6 5 6 8 7 8 8 8 6 8 8 8 7 7 7 7 8 8 6 7 7 8
2 5 1 2 1 1 2 1 1 1 1 1 2 3 4 1 5 1 2 2 1 3 5 1 5 4 4 2 6 4 2 2 2 3 2 5 5 4 5 4 4 4 3 4 4 5 5 4 4 5 5 5 5 5 5 5 4 4 4 4 4 6 7 5 5 6 7 8 7 6 7 9 8 7 7 7 6 7 7 8 7 8 7 7 7 5
2 3 1 7 2 0 0 0 0 0 2 2 1 1 1 2 6 5 1 1 1 4 6 1 8 7 8 3 2 2 4 2 0 3 3 5 5 4 5 5 4 3 3 3 4 4 5 5 5 4 4 5 5 5 5 5 4 4 4 4 5 5 5 6 6 7 6 7 6 7 7 7 7 8 9 9 9 9 7 7 7 7 7 6 5 7
3 3 1 1 0 0 1 0 1 0 1 1 0 3 0 2 3 2 1 2 4 2 7 2 4 9 7 5 4 2 1 4 3 6 6 5 5 5 5 4 3 2 3 4 4 4 4 4 4 5 4 3 4 4 4 5 5 4 3 4 4 5 5 6 5 5 5 6 6 7 7 7 8 8 9 8 9 8 7 6 7 6 6 7 6 5
2 3 1 1 0 5 2 0 1 0 0 0 1 0 1 1 0 3 3 1 0 2 4 7 3 7 6 8 1 4 4 6 6 7 4 5 5 6 5 4 2 3 3 3 4 4 4 4 4 4 4 5 4 4 3 4 4 5 4 3 2 5 5 6 5 5 5 5 5 5 6 7 7 7 8 7 7 6 6 7 7 7 8 5 5 6
1 2 3 1 1 1 1 1 4 1 1 0 0 1 0 1 2 3 4 3 4 3 3 6 4 6 5 5 7 8 9 7 7 5 6 8 6 5 5 4 2 2 3 3 3 4 4 4 4 4 4 5 5 5 5 5 4 5 5 5 5 5 4 5 6 5 5 5 4 6 5 5 6 6 6 7 7 7 7 8 7 7 6 9 6 6
2 1 2 1 3 0 1 3 7 8 6 0 1 1 1 1 2 1 1 2 3 3 3 2 5 8 8 7 6 9 10 10 8 8 7 6 5 7 6 4 3 3 3 3 3 4 4 4 4 4 4 4 4 4 4 4 5 5 4 5 5 5 7 6 6 5 6 5 5 5 6 7 5 6 6 6 5 6 7 6 6 6 7 4 5 5
2 1 5 1 1 2 4 0 1 2 1 5 8 7 9 8 2 1 8 2 1 2 4 3 9 9 11 3 8 6 8 7 8 4 4 5 6 6 4 3 4 3 3 4 4 4 4 4 4 4 4 3 4 5 6 6 5 6 6 6 6 6 5 6 7 6 6 5 5 5 6 6 5 5 5 5 5 6 6 6 6 6 4 5 6 4
3 3 5 3 7 4 3 0 1 1 2 0 3 2 4 2 5 4 2 4 1 3 4 3 0 11 7 4 5 5 3 5 4 4 5 6 5 3 4 4 5 5 5 4 4 4 4 4 4 3 3 3 4 4 4 5 5 5 5 6 6 7 8 6 7 6 6 6 5 6 5 5 5 4 5 5 6 5 6 6 5 4 4 5 5 3
4 2 1 4 3 4 2 1 0 1 0 1 1 0 3 4 6 7 4 4 6 0 1 1 2 10 7 1 4 4 4 4 5 3 7 4 1 3 5 5 4 3 4 4 4 4 3 3 3 2 4 4 4 4 5 4 4 5 5 5 5 6 8 8 7 7 6 6 6 5 5 5 5 5 5 5 5 5 6 5 5 4 4 4 3 4
3 3 5 1 2 3 2 2 1 0 1 2 2 4 4 2 3 2 4 1 1 7 8 7 9 8 4 2 3 2 3 4 5 4 5 3 2 4 5 5 4 5 5 4 4 4 4 4 4 3 3 3 3 4 4 5 5 5 5 5 6 6 6 6 6 7 7 6 7 6 6 6 5 5 5 5 5 5 5 5 4 4 4 4 4 4
1 2 5 3 5 2 2 2 2 4 7 4 2 2 4 7 5 3 3 1 4 3 5 4 7 12 4 6 6 6 5 6 7 7 5 4 5 5 5 5 6 4 4 4 4 4 4 4 3 2 3 3 3 3 4 4 4 4 5 5 4 5 7 7 6 6 6 6 6 6 7 6 6 6 6 6 5 6 5 5 4 4 4 3 4 3
2 0 3 6 7 9 9 3 2 4 4 3 3 6 7 4 2 3 5 5 10 4 6 11 9 11 14 11 7 13 10 9 11 7 6 5 5 5 4 5 6 5 4 4 4 4 4 3 3 3 3 3 3 4 4 4 4 5 5 6 5 5 5 6 6 7 7 6 5 6 6 7 6 6 6 6 6 5 5 4 4 4 4 3 3 3
2 1 6 5 7 7 3 5 4 4 3 4 4 6 5 7 7 8 9 10 6 6 12 8 6 6 20 19 12 12 11 8 8 8 8 5 6 6 6 5 6 5 4 3 3 2 2 3 3 3 4 4 4 4 4 4 4 4 5 6 6 6 6 6 6 6 6 6 6 6 7 6 6 6 6 5 5 4 4 4 4 4 3 2 3 4
4 4 2 4 7 3 4 2 2 2 2 4 7 5 7 8 8 12 12 8 9 8 16 6 10 10 17 15 17 16 11 5 8 9 8 7 5 6 5 5 5 4 3 2 2 3 2 3 3 4 4 4 4 5 5 5 5 5 5 5 5 5 6 6 5 6 5 6 5 6 5 6 5 5 5 5 5 5 5 4 4 3 3 2 3 3
2 4 3 2 3 2 2 5 2 5 3 2 6 8 7 11 15 16 15 10 13 15 14 13 9 16 16 17 18 19 3 3 6 5 5 6 10 8 5 5 5 4 4 3 3 3 3 3 4 4 4 4 4 5 5 5 5 5 5 6 6 7 6 6 6 5 6 6 6 6 6 6 5 5 5 5 5 5 4 4 4 3 3 3 3 3
3 5 4 1 0 4 3 2 0 2 1 6 8 4 5 8 9 11 5 6 5 14 16 17 17 19 20 18 18 18 9 6 9 10 11 10 7 5 5 6 5 5 4 4 3 3 3 4 4 4 4 4 5 4 4 4 4 4 5 5 6 6 6 5 5 5 5 6 6 6 6 6 6 5 6 5 5 5 4 4 3 3 3 3 2 2
1 2 1 1 0 4 3 1 0 3 2 4 12 8 8 8 8 8 10 10 9 16 16 7 9 15 21 20 6 11 9 7 9 9 6 6 5 4 6 7 6 5 4 3 3 3 3 4 4 4 4 4 4 4 4 4 4 4 4 5 5 6 5 4 4 4 5 5 5 6 6 6 5 5 6 5 5 4 4 3 3 3 2 2 2 1
5 5 4 2 2 5 3 0 4 5 2 7 15 16 20 15 13 2 5 2 16 17 10 8 15 17 18 7 2 5 5 6 6 7 7 6 5 6 8 7 7 5 4 3 4 3 3 3 4 4 4 3 3 4 4 3 3 4 4 4 5 4 5 5 5 5 5 6 5 6 6 5 5 5 5 5 5 4 4 3 3 3 3 3 1 0
3 5 3 2 3 2 3 3 0 1 1 10 6 2 8 12 16 15 12 16 18 11 12 14 17 12 7 7 8 13 7 7 8 9 7 4 3 5 6 5 6 5 4 4 4 4 3 3 3 3 3 3 3 2 3 1 1 3 3 3 4 4 4 4 5 5 5 5 6 6 5 5 5 5 5 5 5 4 4 3 3 3 2 1 0 0
6 3 3 2 1 2 0 1 0 5 12 6 1 2 4 5 7 17 18 15 11 12 16 16 18 17 19 15 11 10 6 7 4 4 5 6 6 5 7 7 6 5 5 4 3 3 4 3 3 2 3 2 2 3 4 4 3 3 3 4 4 4 4 4 4 5 5 5 6 6 6 6 5 5 5 5 4 4 4 3 3 3 2 1 1 1
8 7 3 0 3 2 1 2 2 9 7 6 6 2 2 4 3 1 7 18 15 14 17 18 23 21 20 18 11 5 6 7 5 6 9 8 8 7 6 6 6 6 4 4 4 3 2 1 1 0 1 1 1 3 3 3 3 3 4 3 4 4 4 4 5 5 6 6 6 6 6 5 5 5 5 5 5 5 5 4 3 4 3 1 1 0
10 3 3 4 1 5 5 7 11 5 11 9 8 3 8 8 8 9 7 14 6 12 14 18 21 20 19 17 6 4 3 2 5 11 5 7 6 6 8 6 6 5 4 2 3 1 1 1 0 1 0 1 2 4 4 3 3 3 4 5 5 4 5 5 5 6 6 6 6 6 6 5 5 5 5 5 5 5 5 5 5 4 1 1 1 1
5 10 4 5 5 6 4 3 3 4 6 9 10 4 3 2 7 6 5 11 5 8 13 17 17 17 15 7 3 3 1 1 7 9 6 3 5 7 3 2 2 1 2 1 0 1 0 1 2 2 3 4 4 4 3 2 2 3 4 4 4 4 4 4 5 5 5 5 6 5 5 5 4 5 5 5 5 5 4 4 3 2 1 1 1 2
2 4 2 9 3 3 2 5 5 6 8 8 4 1 1 2 6 6 2 7 8 6 10 12 13 13 11 5 3 5 5 4 8 7 5 3 5 5 6 4 2 2 2 3 3 2 1 3 4 4 4 4 4 4 3 1 3 4 4 3 3 3 3 4 5 5 5 5 5 5 5 5 5 5 5 5 5 4 5 4 3 2 2 3 3 3
3 1 3 2 2 5 5 5 9 5 4 1 6 3 3 3 4 2 4 8 7 4 6 9 12 12 7 6 8 8 9 8 7 6 5 7 7 6 5 5 4 5 4 3 1 1 4 4 4 4 5 4 3 2 2 2 3 4 3 3 2 3 4 5 5 4 3 3 4 4 5 5 5 5 5 5 5 5 5 3 3 5 4 5 5 5
4 1 4 13 10 5 6 7 4 6 6 8 3 3 2 4 1 3 8 12 4 4 5 8 9 9 5 8 9 9 12 6 5 2 4 6 4 2 1 1 3 2 3 4 3 4 5 4 5 5 4 2 1 1 1 2 4 3 3 2 3 5 4 4 3 3 3 3 4 5 6 5 5 6 5 4 3 3 5 5 4 4 5 5 5 6
1 2 2 3 4 10 8 9 10 6 6 6 3 8 6 3 3 11 10 2 3 4 4 8 7 6 8 11 10 9 6 4 1 3 6 5 5 5 4 3 2 2 2 3 4 4 5 4 4 4 4 3 3 3 2 3 4 3 3 3 5 4 3 3 3 3 4 5 5 5 5 6 6 4 5 4 5 6 6 4 5 5 4 4 5 6
13 9 8 9 3 3 1 6 4 9 6 9 10 3 1 5 10 7 2 3 4 3 3 5 8 6 9 8 10 10 4 1 5 5 4 3 4 4 5 4 5 5 5 4 4 2 4 5 5 5 4 3 4 3 3 3 4 3 3 6 4 3 3 3 3 4 4 5 5 5 5 5 6 5 4 5 4 5 6 4 6 5 5 5 6 6
7 5 2 3 8 9 10 10 10 10 3 9 16 11 9 16 5 4 4 3 2 4 3 4 5 7 8 8 10 8 7 4 2 4 3 3 4 2 2 2 3 3 3 2 3 3 4 6 4 5 4 3 3 4 3 3 4 3 4 5 3 3 3 4 4 4 5 5 5 5 5 4 5 5 5 5 5 6 6 6 5 6 5 5 5 6
9 8 9 9 8 9 9 10 8 3 6 11 12 7 7 16 3 4 3 1 1 4 4 3 6 5 9 8 7 8 5 6 4 2 4 5 5 5 5 6 6 7 6 5 4 3 3 6 6 6 5 4 4 4 4 3 4 4 5 3 3 4 3 4 4 4 5 4 4 4 4 5 6 7 7 7 6 7 6 6 6 7 5 6 6 5
3 5 1 1 7 5 5 4 1 2 3 8 10 8 4 2 4 3 4 4 6 4 7 6 4 4 5 5 5 4 5 4 3 3 3 3 5 4 3 4 4 4 4 4 4 3 4 5 5 6 5 4 4 4 3 4 3 5 2 3 3 3 3 3 4 5 5 4 4 5 5 7 7 7 7 7 6 6 5 5 6 6 5 6 6 5
3 3 3 4 2 5 10 4 8 10 7 8 11 10 6 5 7 4 4 8 10 5 4 5 4 4 7 7 8 6 6 4 5 4 5 4 5 5 6 6 5 5 6 5 4 5 5 5 6 5 5 5 4 4 3 3 3 3 2 3 3 3 3 4 4 4 4 5 5 5 6 7 6 6 7 6 6 6 6 6 5 6 6 6 6 5
4 4 5 7 1 6 6 6 10 9 5 3 6 6 10 13 13 9 10 7 5 2 5 6 4 3 4 5 9 6 6 4 5 5 5 6 7 6 6 6 7 4 3 4 3 5 5 6 5 6 4 5 4 3 3 3 3 4 4 3 3 2 4 5 4 5 5 5 5 5 5 6 7 7 6 6 6 6 6 6 5 6 6 6 6 6
5 7 6 4 6 8 5 8 8 8 7 5 8 10 12 10 10 7 8 10 7 7 8 5 6 7 8 10 5 5 6 6 7 6 6 6 5 5 6 6 5 6 6 5 3 4 5 5 6 6 6 5 3 3 3 3 3 4 4 3 3 2 5 5 5 5 5 5 6 6 4 5 5 5 5 4 5 4 4 5 6 6 4 2 1 2
6 6 2 2 4 7 10 9 4 6 9 6 10 14 13 12 8 9 5 4 7 8 10 9 10 7 6 6 6 7 8 7 5 5 6 7 8 7 6 6 6 6 5 4 5 6 7 5 6 6 5 4 2 2 2 3 4 3 3 3 2 2 6 5 6 6 5 5 5 4 5 5 5 5 5 5 5 5 5 5 7 6 5 5 8 8
9 8 8 8 8 9 7 9 10 12 10 8 6 6 6 5 5 8 10 11 10 10 10 8 9 6 7 9 5 7 8 7 6 6 5 5 6 6 8 9 8 6 6 5 7 5 6 6 5 5 5 4 2 2 3 3 3 4 4 3 2 4 5 5 6 6 5 5 4 4 4 5 5 5 5 5 5 5 5 5 6 8 11 9 8 7
Wind_Direction
287 83 110 163 187 200 233 167 126 115 113 90 113 167 238 236 284 284 276 270 305 300 251 229 272 277 283 282 287 305 332 319 315 313 306 297 295 288 276 267 259 250 246 283 272 251 238 234 230 226 207 211 207 208 200 199 205 203 201 192 212 209 198 185 188 191 189 198 220 233 225 232 228 227 227 236 234 230 231 230 226 225 224 219 216 212
67 71 251 217 203 182 217 173 36 30 85 170 168 204 291 192 273 235 255 356 323 50 287 296 324 292 275 289 296 318 5 321 340 328 322 316 313 296 283 282 274 262 296 304 289 273 262 249 236 215 200 183 190 222 201 205 208 206 204 201 210 198 195 198 194 193 192 196 194 192 210 214 225 225 220 233 230 228 232 230 228 226 222 217 214 210
36 136 197 214 209 181 3 32 69 158 202 51 212 243 329 288 255 301 261 342 303 25 255 318 336 295 297 306 308 305 282 265 277 239 273 305 323 330 321 291 289 304 287 308 284 284 278 264 250 208 210 209 210 201 199 208 204 208 208 213 208 200 197 204 199 187 202 206 215 197 217 196 240 243 235 243 244 238 238 236 230 227 223 216 218 210
58 283 237 199 88 57 41 53 103 98 69 142 15 40 269 277 21 322 283 335 332 129 273 314 305 291 309 307 298 288 302 288 297 317 298 282 307 323 316 298 297 305 307 304 281 287 310 293 247 230 224 221 220 217 214 208 206 209 214 213 210 210 207 205 206 204 214 209 207 237 224 256 216 236 254 253 263 257 253 247 230 234 222 216 218 208
191 239 258 68 68 102 148 35 102 123 221 4 160 161 224 338 338 181 272 325 304 297 251 295 6 321 1 4 340 323 338 16 357 1 16 357 331 293 297 345 305 273 299 304 313 306 315 317 249 226 229 211 210 217 211 204 204 205 211 212 208 210 208 211 207 209 200 166 171 191 320 351 314 289 278 284 268 236 238 255 233 232 213 216 218 208
11 300 56 62 57 66 108 295 49 125 327 317 236 182 181 148 241 308 310 346 17 331 326 16 33 292 305 309 257 296 352 6 329 29 355 331 335 350 1 335 338 337 264 255 292 294 281 274 290 287 256 223 228 227 222 209 209 207 215 211 215 220 220 218 216 205 176 193 190 178 202 237 238 252 241 235 236 231 223 225 238 240 208 214 216 211
174 5 94 149 110 70 65 165 227 122 167 50 236 160 149 156 154 42 341 41 9 41 317 44 112 264 335 321 289 325 338 320 330 7 328 328 329 337 337 335 331 337 343 338 311 305 308 290 272 267 255 233 230 237 225 225 227 224 225 212 207 213 219 220 219 194 187 197 200 202 207 214 218 229 244 236 241 233 235 235 238 228 214 211 211 215
80 358 51 43 72 74 49 17 226 129 79 281 99 136 116 88 2 324 88 80 216 274 304 37 78 160 313 291 250 304 311 317 338 347 338 330 327 332 331 331 330 325 329 325 320 311 277 274 260 264 256 243 236 256 221 229 230 229 231 222 220 218 221 216 201 194 199 204 207 211 220 221 226 224 243 231 240 229 227 223 234 227 225 214 213 213
107 162 109 75 83 95 214 206 142 171 179 233 205 174 93 146 173 127 95 95 259 310 299 323 339 52 252 263 308 330 191 342 352 337 320 319 327 328 325 325 323 317 304 296 314 318 311 303 286 259 267 258 267 263 251 251 252 249 248 243 244 240 233 233 203 202 208 212 209 212 218 229 233 234 244 260 256 234 222 237 238 229 228 222 221 219
335 117 226 157 137 231 241 259 199 154 30 243 135 75 62 75 75 110 98 79 328 56 284 289 352 292 289 278 328 340 96 334 254 275 280 279 292 303 318 321 322 320 326 323 307 298 306 302 290 271 278 288 267 269 245 248 248 252 250 249 241 246 234 239 227 222 227 223 220 220 221 227 240 235 254 259 261 252 232 244 244 234 231 225 225 224
275 305 175 91 187 192 156 247 159 108 130 89 91 64 2 35 37 25 70 92 55 39 263 233 317 106 311 272 220 64 196 190 197 276 274 284 299 307 296 299 307 318 321 324 326 325 321 308 303 329 319 290 309 304 268 254 247 241 225 229 244 251 257 243 233 217 234 226 226 231 232 234 243 246 250 262 261 253 251 247 252 237 240 227 232 219
14 2 40 273 70 90 133 76 35 118 82 125 104 136 21 353 5 50 342 22 85 285 258 246 309 30 191 293 284 241 273 174 163 186 213 238 250 267 296 304 307 311 317 325 347 342 343 350 349 355 348 338 323 330 325 284 268 252 241 223 238 253 236 225 219 218 236 231 235 243 249 248 251 262 256 250 258 254 250 251 257 252 247 241 237 230
307 160 260 332 266 114 220 64 337 48 11 66 50 30 65 278 26 287 14 334 193 201 141 17 58 0 233 226 232 267 241 244 208 186 187 202 226 254 281 292 293 298 319 345 339 337 343 346 340 346 337 344 343 332 322 311 297 274 255 233 241 261 243 233 219 216 223 220 226 224 233 243 245 246 241 246 251 251 244 245 250 242 236 232 229 228
276 299 348 290 51 60 151 130 284 15 344 74 193 121 73 12 36 261 275 233 301 300 267 17 289 245 258 282 240 244 261 215 195 198 201 189 201 226 248 285 312 309 307 320 325 328 333 336 336 331 330 328 329 333 328 320 308 291 274 261 236 259 257 253 243 236 239 237 236 229 231 236 232 239 234 238 241 247 237 234 239 234 231 225 224 221
310 336 262 123 198 18 44 130 178 182 143 214 144 125 198 136 166 270 235 272 236 228 279 282 49 236 96 195 233 219 258 272 211 189 207 241 250 254 281 294 297 303 323 336 334 327 316 317 320 316 315 318 326 331 334 332 321 313 288 273 258 270 271 253 250 250 246 248 242 237 237 241 237 243 243 246 242 252 249 243 242 244 240 233 236 226
204 213 275 285 252 351 133 277 109 81 64 244 169 92 72 241 129 203 207 158 265 339 338 241 211 191 177 269 298 277 286 85 88 197 268 267 277 314 320 312 296 289 311 326 331 330 326 313 314 321 322 317 321 324 330 338 335 323 285 276 264 258 273 273 267 256 250 254 252 249 246 244 241 244 247 256 248 244 234 243 233 245 237 236 241 241
14 275 351 314 48 104 253 330 336 193 173 240 86 232 207 132 97 90 73 42 62 50 254 189 313 291 299 313 327 25 118 136 119 238 262 274 281 321 293 288 282 282 304 310 322 315 309 321 324 309 301 312 321 330 330 319 321 307 297 293 287 280 278 271 262 260 257 258 258 255 248 251 249 244 243 244 246 244 242 237 240 239 242 241 237 243
149 246 314 58 318 354 273 174 311 296 210 67 107 235 215 147 119 127 235 343 57 139 262 40 243 303 24 288 322 73 98 200 231 241 239 280 287 288 268 275 271 290 289 286 280 272 266 271 279 297 298 290 297 297 311 320 323 314 288 281 285 298 293 286 270 264 259 257 257 258 254 249 242 243 245 245 249 246 246 246 244 245 250 239 236 229
132 317 310 268 182 272 1 49 335 251 128 107 179 266 117 233 211 335 89 324 266 280 279 307 291 261 190 251 324 242 205 220 237 241 265 276 265 257 276 290 300 292 317 324 321 318 319 310 304 297 295 302 301 302 295 307 323 330 338 320 265 278 285 283 288 277 275 256 255 254 252 248 250 244 245 247 246 245 242 246 243 239 240 247 237 226
38 163 290 293 138 323 347 100 246 279 359 62 336 9 299 114 187 121 203 180 117 274 42 289 20 264 206 218 192 212 205 208 216 237 239 235 231 246 255 277 286 286 292 295 296 295 287 288 282 284 294 314 324 325 327 325 334 343 333 331 331 316 311 316 307 299 287 279 267 269 271 266 253 253 246 244 241 241 238 241 242 243 244 238 229 223
105 122 251 285 275 16 238 188 218 164 159 17 90 316 339 352 211 105 25 148 189 183 185 222 322 275 260 213 178 210 195 202 188 203 233 232 238 243 248 257 269 258 267 269 266 276 288 293 301 308 309 308 322 330 335 350 338 320 334 342 339 335 323 325 312 313 296 300 290 284 278 275 272 264 257 260 250 248 250 251 247 248 245 261 245 231
91 122 195 321 44 229 225 235 206 185 161 173 162 195 177 129 134 154 266 29 94 116 239 138 254 265 268 195 212 206 198 187 210 179 212 234 232 238 260 267 234 263 260 252 262 265 280 291 302 309 325 342 6 355 351 339 346 352 352 345 340 343 336 330 326 323 313 309 300 292 288 288 286 276 277 266 263 255 257 256 251 251 268 248 255 219
149 146 97 182 199 202 247 242 206 138 129 182 174 252 164 134 101 104 184 267 24 246 117 167 5 271 252 220 219 234 224 211 226 182 212 220 223 249 270 268 268 232 252 263 265 271 266 268 274 284 290 320 338 331 336 339 347 339 341 348 347 347 337 336 323 322 316 312 312 305 302 300 295 298 288 279 272 266 262 261 262 259 250 253 257 232
98 96 76 289 308 307 331 298 43 54 141 2 285 74 123 186 183 175 169 177 145 175 205 302 237 254 287 272 252 243 246 270 304 225 228 216 268 286 286 284 279 294 272 271 268 263 267 280 285 325 5 348 340 340 334 326 333 340 346 344 340 340 331 333 334 330 329 325 319 313 318 315 311 314 302 289 278 276 272 270 269 266 250 253 250 233
156 273 125 33 353 341 340 352 351 328 80 209 202 208 194 121 82 156 102 111 291 216 178 140 238 276 270 322 307 326 317 280 267 266 224 245 274 276 284 280 274 272 289 297 306 314 321 347 354 334 305 316 321 320 329 335 334 340 338 343 344 330 325 324 327 333 329 327 324 324 331 324 326 322 313 299 292 282 280 277 273 264 246 247 238 229
102 169 122 150 190 230 273 286 251 248 222 217 225 191 207 164 144 120 230 129 204 277 134 197 252 253 269 312 307 284 262 273 251 242 283 223 245 280 301 282 277 277 267 278 295 327 329 305 291 312 326 321 316 310 316 325 328 332 335 331 332 331 331 329 332 329 328 331 333 328 331 328 331 327 315 305 299 291 289 287 277 272 266 232 247 241
176 100 152 164 161 209 212 207 249 108 64 186 232 178 202 184 173 106 103 110 206 208 188 234 218 286 288 260 262 273 274 264 279 290 279 284 281 269 249 259 263 261 262 273 285 286 307 330 327 308 298 294 295 311 309 313 324 333 336 327 331 330 323 320 330 328 332 332 332 330 328 329 325 321 316 312 304 303 302 295 288 278 267 259 241 241
66 243 244 188 231 227 171 198 209 159 165 223 154 224 188 165 172 155 168 214 161 99 272 226 216 245 261 276 266 250 250 258 271 269 276 265 257 259 270 270 277 283 277 292 294 287 286 283 287 299 300 309 313 312 319 316 324 328 326 324 325 330 332 331 334 331 333 337 335 334 329 325 321 319 313 310 307 302 295 293 288 274 273 256 239 238
144 185 268 143 261 234 210 228 163 197 212 187 200 173 172 192 156 191 222 207 148 183 242 255 166 217 253 258 267 268 266 239 230 243 232 236 259 281 279 267 258 262 284 306 272 273 289 309 301 300 311 309 318 329 328 329 336 341 336 328 330 334 334 332 334 334 335 336 338 328 320 317 318 316 315 314 313 311 308 302 293 291 282 259 261 256
108 255 203 176 259 313 254 228 250 200 257 271 225 211 194 168 203 207 222 205 191 232 240 261 248 245 256 265 266 267 280 257 267 246 260 275 262 259 250 235 240 252 256 255 266 279 282 278 287 293 303 315 326 325 329 334 338 339 337 333 337 340 335 348 341 342 342 342 334 327 327 324 324 328 325 331 327 317 312 311 311 307 295 283 278 279
151 270 136 113 32 286 305 336 85 218 227 264 255 222 199 214 228 228 255 250 244 270 269 260 264 277 270 253 263 276 282 274 278 280 264 261 265 239 215 218 231 238 248 258 277 278 278 290 290 302 318 315 323 317 322 323 327 331 332 335 337 334 330 343 340 340 342 338 332 330 332 338 336 335 337 330 324 323 327 323 320 313 305 304 300 294
132 244 47 74 62 298 335 38 356 66 56 264 276 242 209 211 228 215 207 213 178 229 240 254 281 259 263 268 246 255 266 258 254 261 267 260 240 209 205 218 223 234 247 250 256 269 282 283 287 298 297 306 310 314 324 331 329 338 334 328 331 324 325 339 344 345 339 336 335 338 342 338 335 340 333 339 333 328 322 324 332 322 318 315 316 326
184 144 161 134 164 263 268 309 117 77 41 305 264 243 217 211 212 251 271 182 213 213 234 227 240 239 246 263 301 262 217 247 255 245 250 269 250 201 204 209 214 224 230 233 240 245 247 246 256 266 285 292 295 308 314 320 342 338 322 329 319 327 348 350 356 353 352 344 347 344 341 341 343 337 339 338 331 330 337 350 340 329 325 313 306 37
133 145 168 168 173 249 285 308 67 80 210 236 232 199 157 191 203 216 237 221 225 165 215 216 238 264 283 270 234 251 228 233 227 236 200 200 213 205 231 225 216 211 230 238 229 229 245 258 262 262 257 269 279 281 292 296 330 306 302 311 330 2 354 3 358 4 352 343 346 341 340 343 346 345 340 335 337 343 345 346 320 311 300 304 23 51
166 146 179 178 130 224 96 58 143 221 227 242 254 233 215 201 185 200 232 240 230 211 242 266 267 258 253 250 240 241 225 248 251 257 269 233 207 200 202 209 212 215 217 222 249 251 237 235 258 282 316 331 328 325 353 354 354 329 353 4 6 8 10 8 3 1 351 346 342 344 348 348 350 350 345 343 346 349 354 340 325 333 328 333 286 280
164 158 166 217 145 71 90 166 184 232 235 279 271 110 144 91 131 138 291 264 233 213 213 237 249 253 256 260 252 225 222 251 292 253 237 239 197 197 186 189 201 196 206 216 197 228 220 228 235 249 295 299 354 350 9 346 330 5 356 1 25 9 15 7 7 357 351 349 346 344 343 350 350 355 355 354 353 1 352 348 338 323 332 4 18 38
158 103 128 209 158 195 199 187 234 321 315 295 275 200 178 190 175 170 226 277 217 196 197 225 242 249 255 256 267 239 249 318 294 279 240 220 212 196 176 185 182 194 195 222 195 206 204 226 155 167 155 38 34 24 356 334 352 23 23 26 12 17 9 8 6 355 349 347 346 346 343 348 355 360 359 355 3 359 354 350 344 340 357 30 24 14
177 171 221 160 241 135 127 290 321 282 259 265 241 271 287 234 151 170 125 280 255 199 198 208 230 245 252 263 212 208 116 143 287 271 278 213 172 166 232 182 180 182 190 190 279 267 309 70 104 84 76 50 27 12 351 350 15 47 45 30 16 18 6 7 359 348 351 349 346 346 344 349 360 6 357 5 6 353 347 342 338 337 339 10 352 6
42 86 133 173 226 93 190 216 219 205 239 219 259 252 245 166 141 129 72 279 271 205 212 195 227 240 241 208 184 128 122 182 244 251 262 161 160 171 153 182 191 193 195 193 171 131 87 72 92 88 66 57 32 346 347 12 65 71 56 35 21 15 12 4 349 352 350 342 340 347 354 354 2 7 2 8 2 4 7 0 350 344 36 48 68 45
109 92 93 221 192 206 174 209 242 206 236 256 233 257 236 158 124 69 314 268 258 242 196 181 214 235 227 175 154 160 159 204 244 252 209 185 172 190 152 164 163 170 184 171 167 140 114 112 99 63 57 51 10 328 353 30 74 74 68 40 13 24 14 354 341 331 333 342 349 356 3 4 4 7 13 1 5 16 15 353 24 29 53 42 53 57
174 212 175 214 202 199 191 263 335 290 267 249 236 224 188 176 83 94 224 245 241 227 197 183 212 220 168 160 168 177 224 185 202 190 142 154 115 174 220 162 175 156 115 94 104 121 104 88 94 98 86 70 24 8 8 89 86 73 59 39 33 23 357 335 335 344 349 0 9 11 6 6 12 4 8 10 353 30 34 22 32 37 52 55 49 58
314 117 310 78 180 198 206 220 235 251 238 212 249 166 173 108 212 214 233 222 167 235 227 195 216 206 170 180 191 211 214 172 129 99 129 154 164 174 143 166 132 83 69 92 96 103 100 99 87 78 65 48 42 24 34 75 83 74 54 44 33 0 331 347 359 6 17 22 19 14 12 7 4 18 12 8 30 52 38 21 43 51 57 62 65 64
181 154 206 176 184 53 112 229 273 265 270 193 140 72 221 170 241 210 233 270 194 237 200 216 206 216 174 200 210 214 243 202 188 205 201 194 164 177 179 157 130 136 134 120 84 72 114 95 86 80 76 46 42 30 25 75 84 71 54 45 13 341 351 8 21 26 30 29 26 18 15 14 18 18 16 22 31 61 51 32 46 38 45 63 65 65
183 149 191 217 185 178 189 196 206 210 171 153 148 184 196 217 205 183 155 253 241 192 204 218 245 203 197 192 196 225 237 249 258 206 218 230 221 182 156 129 124 119 97 81 117 142 116 108 108 95 75 57 47 42 26 58 81 64 57 33 342 353 13 29 28 34 41 34 27 20 21 21 25 29 30 26 35 51 50 38 47 49 38 50 67 66
196 195 173 183 205 173 198 210 225 216 181 196 196 217 207 216 168 176 164 202 215 253 194 168 234 199 198 205 204 192 202 225 221 190 166 199 187 173 162 175 168 161 155 151 148 141 119 125 120 106 78 54 52 44 40 36 78 71 51 2 359 11 19 27 34 47 44 36 26 27 18 36 36 33 33 29 39 46 39 39 41 48 16 51 50 58
268 210 126 101 242 269 280 200 280 285 242 245 249 239 221 291 254 183 213 268 250 216 180 193 209 188 198 198 176 221 213 205 176 207 225 211 184 198 144 125 114 110 124 121 121 123 125 111 104 101 94 72 59 50 47 38 50 64 15 348 10 10 27 46 55 53 46 38 37 28 30 47 38 37 34 39 41 49 44 58 55 60 35 49 49 50
244 155 179 211 271 138 254 173 211 239 240 224 226 249 265 239 251 197 214 226 251 217 225 250 216 188 188 181 213 200 217 200 202 212 188 191 198 190 175 156 155 157 152 140 151 136 121 120 106 100 92 77 50 49 39 40 34 39 5 7 3 12 52 67 67 64 50 46 43 39 42 51 46 40 35 35 41 47 45 43 55 59 48 47 48 45
288 178 178 227 183 197 237 229 227 242 258 267 206 246 254 250 243 216 216 230 233 214 208 227 189 228 152 191 212 195 223 200 192 212 188 198 194 180 170 158 145 117 100 118 130 122 113 111 117 112 103 84 61 49 37 27 25 8 6 5 17 23 69 68 69 71 62 53 54 52 48 54 52 55 50 38 44 46 39 38 50 61 54 47 36 49
188 129 219 174 196 254 284 284 279 289 273 239 241 239 239 239 246 245 223 231 239 251 253 242 196 209 182 221 184 190 221 235 204 197 183 188 177 169 169 156 145 138 139 120 107 116 120 124 112 108 97 85 66 48 33 27 13 7 9 359 3 55 86 81 75 73 63 56 59 55 54 59 56 56 57 49 45 48 77 74 46 53 35 24 114 110
102 201 191 108 229 246 220 226 213 261 265 252 225 230 235 236 235 252 268 259 234 235 243 240 243 227 221 221 189 184 210 236 198 177 180 179 176 166 149 137 134 125 115 110 104 100 94 94 108 106 97 85 65 38 44 26 16 1 5 359 10 80 97 92 82 75 65 62 64 59 61 58 54 47 47 41 28 21 8 21 46 46 58 16 7 10
195 199 153 204 206 238 223 229 218 230 247 237 243 250 234 236 207 230 241 243 246 234 235 227 246 248 236 236 192 189 215 213 201 170 161 166 171 161 152 146 140 134 130 127 109 95 96 95 94 98 93 86 63 57 47 40 15 8 5 10 20 92 103 103 94 86 74 66 63 62 66 64 56 46 54 45 42 35 32 2 358 29 37 32 16 9